Terug naar catalogus

THOR ABLESTAR DEB

ActiefLEO
NORAD 225·DEBRIS·🇺🇸 United States

Gelanceerd Jun 29, 1961 vanaf Cape Canaveral Space Force Station

Loading…

Volgende Passages (komende 24 uur)

TLE

VersSource: Space-Track

Epoch: Sep 14, 2026, 08:01 UTC

1 00225U 61015BM  26257.33435554  .00001072  00000-0  35877-3 0  9999
2 00225  66.7978  11.7935 0096504 153.1610 207.4534 14.38645227370558

Volg THOR ABLESTAR DEB in realtime met AllMySat

Download on the App Store